Retour au catalogue

STARLINK-33750

ActifCommunicationsVLEO
NORAD 63513·PAYLOAD·🇺🇸 United States

Lancé Apr 7, 2025 depuis Vandenberg Space Force Base

Loading…

Prochains Passages (prochaines 24 heures)

TLE

FraisSource: CelesTrak SupGP

Époque: Sep 15, 2026, 02:52 UTC

1 63513C 25071W   26258.11993056  .00067300  00000+0  21640-2 0  2588
2 63513  53.1593 338.6749 0001211  93.2211 179.0091 15.31670737    17

Suivez STARLINK-33750 en temps réel avec AllMySat

Download on the App Store